Location: Newark
(34.0131°N, 4.3314°W)
Time: 12:24:55
(UTC+00:00)

Transit 2A Rocket - Pass Details

Date: 31 October 2019
Orbit: 594 x 909 km, 66.7° (Epoch: 20 November)

Event Time Altitude Azimuth Distance (km) Brightness Sun altitude
Rises 00:43:46 0° 160° (SSE) 3,255 - -67.7°
Reaches altitude 10° 00:47:30 10° 135° (SE) 2,256 - -67.3°
Maximum altitude 00:49:53 13° 107° (ESE) 1,988 - -67.1°
Drops below altitude 10° 00:52:11 10° 78° (ENE) 2,165 - -66.8°
Sets 00:55:36 0° 52° (NE) 3,017 - -66.4°
